Weather History for KHEF - September, 2013

Change the Weather History Date:

Sunday, September 29, 2013

  Actual Average Record
Temperature  
Mean Temperature 56 °F -  
Max Temperature 71 °F 70 °F 78 °F (1997)
Min Temperature 42 °F 48 °F 39 °F (2001)
Degree Days  
Heating Degree Days 8    
Growing Degree Days 6 (Base 50)    
Moisture  
Dew Point 50 °F    
Average Humidity 92    
Maximum Humidity 100    
Minimum Humidity 46    
Precipitation  
Precipitation 0.00 in - - ()
Sea Level Pressure  
Sea Level Pressure 30.15 in    
Wind  
Wind Speed 1 mph (NW)    
Max Wind Speed 6 mph    
Max Gust Speed -    
Visibility 8 miles    
Events      
Averages and records for this station are not official NWS values.
T = Trace of Precipitation, MM = Missing Value Source: NWS Daily Summary

Daily Weather History Graph

Daily Weather History Graph

Search for Another Location

Airport or City:

Trip Planner

Search our weather history database for the weather conditions in past years. The results will help you decide how hot, cold, wet, or windy it might be!

Date:

Astronomy

Sep. 29, 2013 Rise Set
Actual Time 7:04 AM EDT 6:55 PM EDT
Civil Twilight 6:37 AM EDT 7:22 PM EDT
Nautical Twilight 6:06 AM EDT 7:52 PM EDT
Astronomical Twilight 5:35 AM EDT 8:23 PM EDT
Moon 1:46 AM EDT (9/29) 3:47 PM EDT (9/29)
Length of Visible Light 12h 44m
Length of Day
11h 51m
Waning Crescent, 27% of the Moon is Illuminated
Sep 29
Waning Crescent
Oct 4
New
Oct 11
First Quarter
Oct 18
Full
Oct 26
Last Quarter

Hourly Weather History & Observations

Time (EDT) Temp. Dew Point Humidity Pressure Visibility Wind Dir Wind Speed Gust Speed Precip Events Conditions
12:15 AM 50.0 °F 50.0 °F 100% 30.23 in 6.0 mi Calm Calm - N/A   Partly Cloudy
12:35 AM 50.0 °F 50.0 °F 100% 30.23 in 8.0 mi Calm Calm - N/A   Partly Cloudy
12:55 AM 48.2 °F 48.2 °F 100% 30.22 in 10.0 mi NW 3.5 mph - N/A   Clear
1:15 AM 50.0 °F 50.0 °F 100% 30.22 in 10.0 mi Calm Calm - N/A   Clear
1:35 AM 50.0 °F 48.2 °F 94% 30.22 in 10.0 mi Calm Calm - N/A   Clear
1:55 AM 48.2 °F 48.2 °F 100% 30.22 in 8.0 mi Calm Calm - N/A   Clear
2:15 AM 48.2 °F 48.2 °F 100% 30.21 in 1.5 mi Calm Calm - N/A   Clear
2:35 AM 46.4 °F 46.4 °F 100% 30.20 in 0.8 mi Calm Calm - N/A   Unknown
2:55 AM 48.2 °F 48.2 °F 100% 30.20 in 4.0 mi Calm Calm - N/A   Clear
3:15 AM 46.4 °F 46.4 °F 100% 30.20 in 10.0 mi Calm Calm - N/A   Clear
3:35 AM 46.4 °F 46.4 °F 100% 30.19 in 10.0 mi Calm Calm - N/A   Clear
3:55 AM 46.4 °F 46.4 °F 100% 30.19 in 2.5 mi Calm Calm - N/A   Clear
4:15 AM 46.4 °F 46.4 °F 100% 30.19 in 1.5 mi Calm Calm - N/A   Clear
4:35 AM 44.6 °F 44.6 °F 100% 30.19 in 10.0 mi Calm Calm - N/A   Clear
4:55 AM 46.4 °F 44.6 °F 93% 30.19 in 10.0 mi Calm Calm - N/A   Clear
5:15 AM 46.4 °F 44.6 °F 93% 30.19 in 2.0 mi Calm Calm - N/A   Clear
5:35 AM 44.6 °F 44.6 °F 100% 30.19 in 2.5 mi Calm Calm - N/A   Clear
5:55 AM 44.6 °F 44.6 °F 100% 30.19 in 10.0 mi Calm Calm - N/A   Clear
6:15 AM 44.6 °F 44.6 °F 100% 30.19 in 10.0 mi Calm Calm - N/A   Clear
6:45 AM 44.6 °F 44.6 °F 100% 30.19 in 5.0 mi Calm Calm - N/A   Clear
7:45 AM 42.8 °F 42.8 °F 100% 30.20 in 8.0 mi Calm Calm - N/A   Clear
8:45 AM 50.0 °F 50.0 °F 100% 30.20 in 10.0 mi Calm Calm - N/A   Clear
9:45 AM 60.8 °F 57.2 °F 88% 30.20 in 10.0 mi Calm Calm - N/A   Clear
11:50 AM 66.2 °F 53.6 °F 64% 30.17 in 10.0 mi NE 5.8 mph - N/A   Clear
12:50 PM 71.6 °F 50.0 °F 46% 30.16 in 10.0 mi NW 4.6 mph - N/A   Partly Cloudy
1:45 PM 71.6 °F 51.8 °F 50% 30.13 in 10.0 mi West 3.5 mph - N/A   Clear
4:45 PM 69.8 °F 53.6 °F 56% 30.07 in 10.0 mi Variable 5.8 mph - N/A   Clear
5:45 PM 69.8 °F 53.6 °F 56% 30.08 in 10.0 mi Variable 5.8 mph - N/A   Clear
6:50 PM 64.4 °F 57.2 °F 77% 30.08 in 10.0 mi Calm Calm - N/A   Clear
8:15 PM 57.2 °F 55.4 °F 94% 30.08 in 10.0 mi Calm Calm - N/A   Clear
8:35 PM 57.2 °F 55.4 °F 94% 30.09 in 10.0 mi Calm Calm - N/A   Clear
8:55 PM 57.2 °F 55.4 °F 94% 30.08 in 10.0 mi Calm Calm - N/A   Clear
9:15 PM 57.2 °F 55.4 °F 94% 30.08 in 10.0 mi Calm Calm - N/A   Clear
9:35 PM 55.4 °F 55.4 °F 100% 30.08 in 10.0 mi Calm Calm - N/A   Clear
9:55 PM 53.6 °F 53.6 °F 100% 30.08 in 10.0 mi Calm Calm - N/A   Clear
10:15 PM 53.6 °F 51.8 °F 94% 30.08 in 10.0 mi Calm Calm - N/A   Clear
10:35 PM 53.6 °F 53.6 °F 100% 30.08 in 10.0 mi Calm Calm - N/A   Clear
10:55 PM 51.8 °F 51.8 °F 100% 30.09 in 5.0 mi Calm Calm - N/A   Clear
11:15 PM 53.6 °F 51.8 °F 94% 30.09 in 10.0 mi Calm Calm - N/A   Clear
11:35 PM 50.0 °F 48.2 °F 94% 30.08 in 5.0 mi Calm Calm - N/A   Clear
11:55 PM 51.8 °F 51.8 °F 100% 30.08 in 10.0 mi Calm Calm - N/A   Clear